Weather History for Steamboat Springs, CO

Change the Weather History Date:

Wednesday, March 19, 2014

  Actual Average Record
Temperature  
Mean Temperature 28 °F -  
Max Temperature 39 °F 42 °F 57 °F (1910)
Min Temperature 16 °F 15 °F -20 °F (1965)
Degree Days  
Heating Degree Days 38    
Moisture  
Dew Point 11 °F    
Average Humidity 54    
Maximum Humidity 81    
Minimum Humidity 25    
Precipitation  
Precipitation 0.00 in - - ()
Sea Level Pressure  
Sea Level Pressure 30.15 in    
Wind  
Wind Speed 1 mph (NE)    
Max Wind Speed 8 mph    
Max Gust Speed -    
Visibility 10 miles    
Events      
Averages and records for this station are not official NWS values.
T = Trace of Precipitation, MM = Missing Value Source: NWS Daily Summary

Daily Weather History Graph

Daily Weather History Graph

Search for Another Location

Airport:

Trip Planner

Search our weather history database for the weather conditions in past years. The results will help you decide how hot, cold, wet, or windy it might be!

Date:

Astronomy

Mar. 19, 2014 Rise Set
Actual Time 7:12 AM MDT 7:18 PM MDT
Civil Twilight 6:45 AM MDT 7:45 PM MDT
Nautical Twilight 6:13 AM MDT 8:17 PM MDT
Astronomical Twilight 5:41 AM MDT 8:50 PM MDT
Moon 10:40 PM MDT (3/19) 8:39 AM MDT (3/19)
Length of Visible Light 13h 00m
Length of Day
12h 06m
Waning Gibbous, 91% of the Moon is Illuminated
Mar 19
Waning Gibbous
Mar 23
Last Quarter
Mar 30
New
Apr 7
First Quarter
Apr 15
Full

Hourly Weather History & Observations

Time (MDT) Temp. Windchill Dew Point Humidity Pressure Visibility Wind Dir Wind Speed Gust Speed Precip Events Conditions
12:15 AM 20.1 °F - 10.8 °F 67% 30.07 in 10.0 mi Calm Calm - N/A   Overcast
12:35 AM 19.0 °F - 10.4 °F 69% 30.08 in 10.0 mi Calm Calm - N/A   Overcast
12:55 AM 19.0 °F - 10.8 °F 70% 30.08 in 10.0 mi Calm Calm - N/A   Mostly Cloudy
1:15 AM 18.9 °F - 10.4 °F 70% 30.08 in 10.0 mi Calm Calm - N/A   Overcast
1:35 AM 17.8 °F - 10.2 °F 72% 30.09 in 10.0 mi Calm Calm - N/A   Overcast
1:55 AM 16.7 °F - 9.9 °F 74% 30.10 in 10.0 mi Calm Calm - N/A   Mostly Cloudy
2:15 AM 18.3 °F - 10.4 °F 71% 30.10 in 10.0 mi Calm Calm - N/A   Overcast
2:35 AM 17.4 °F - 10.4 °F 74% 30.10 in 10.0 mi Calm Calm - N/A   Overcast
2:55 AM 19.6 °F 9.7 °F 10.9 °F 69% 30.10 in 10.0 mi ENE 8.1 mph - N/A   Overcast
3:15 AM 20.1 °F 12.3 °F 10.6 °F 67% 30.10 in 10.0 mi East 5.8 mph - N/A   Overcast
3:35 AM 19.2 °F - 10.9 °F 70% 30.11 in 10.0 mi Calm Calm - N/A   Overcast
3:55 AM 19.2 °F 14.1 °F 11.3 °F 71% 30.12 in 10.0 mi ESE 3.5 mph - N/A   Overcast
4:15 AM 18.9 °F - 11.8 °F 74% 30.12 in 10.0 mi Calm Calm - N/A   Overcast
4:35 AM 19.2 °F - 12.0 °F 74% 30.12 in 10.0 mi Calm Calm - N/A   Overcast
4:55 AM 19.0 °F - 12.7 °F 76% 30.13 in 7.0 mi Calm Calm - N/A   Overcast
5:15 AM 18.5 °F - 12.7 °F 78% 30.13 in 7.0 mi Calm Calm - N/A   Overcast
5:35 AM 18.5 °F - 13.1 °F 79% 30.14 in 10.0 mi Calm Calm - N/A   Overcast
5:55 AM 18.9 °F - 12.9 °F 78% 30.15 in 10.0 mi Calm Calm - N/A   Overcast
6:15 AM 18.9 °F - 12.9 °F 78% 30.16 in 10.0 mi Calm Calm - N/A   Overcast
6:35 AM 19.0 °F - 12.9 °F 77% 30.16 in 10.0 mi Calm Calm - N/A   Overcast
6:55 AM 19.0 °F - 13.1 °F 78% 30.17 in 10.0 mi Calm Calm - N/A   Overcast
7:15 AM 19.0 °F - 13.5 °F 79% 30.18 in 10.0 mi Calm Calm - N/A   Overcast
7:35 AM 19.8 °F - 14.4 °F 80% 30.18 in 10.0 mi Calm Calm - N/A   Overcast
7:55 AM 19.0 °F - 14.0 °F 81% 30.18 in 10.0 mi Calm Calm - N/A   Overcast
8:15 AM 19.0 °F - 13.1 °F 78% 30.19 in 10.0 mi Calm Calm - N/A   Mostly Cloudy
8:35 AM 18.3 °F - 11.7 °F 75% 30.20 in 10.0 mi Calm Calm - N/A   Scattered Clouds
8:55 AM 19.9 °F - 12.0 °F 71% 30.21 in 10.0 mi Calm Calm - N/A   Clear
9:15 AM 21.6 °F - 12.2 °F 67% 30.21 in 10.0 mi Calm Calm - N/A   Clear
9:35 AM 24.1 °F - 13.5 °F 64% 30.21 in 10.0 mi Calm Calm - N/A   Clear
9:55 AM 26.1 °F - 13.8 °F 60% 30.21 in 10.0 mi Calm Calm - N/A   Clear
10:15 AM 27.1 °F - 13.6 °F 57% 30.22 in 10.0 mi Calm Calm - N/A   Clear
10:35 AM 29.5 °F - 14.0 °F 53% 30.22 in 10.0 mi Calm Calm - N/A   Clear
10:55 AM 29.3 °F - 10.6 °F 46% 30.23 in 10.0 mi Calm Calm - N/A   Clear
11:15 AM 30.2 °F - 7.9 °F 39% 30.23 in 10.0 mi Calm Calm - N/A   Clear
11:35 AM 32.0 °F 28.7 °F 7.3 °F 36% 30.22 in 10.0 mi ENE 3.5 mph - N/A   Clear
11:55 AM 33.1 °F - 4.8 °F 30% 30.22 in 10.0 mi Calm Calm - N/A   Clear
12:15 PM 32.9 °F 29.8 °F 4.6 °F 30% 30.22 in 10.0 mi NNW 3.5 mph - N/A   Clear
12:35 PM 33.4 °F 30.4 °F 4.5 °F 30% 30.21 in 10.0 mi North 3.5 mph - N/A   Clear
12:55 PM 33.8 °F - 6.8 °F 32% 30.20 in 10.0 mi Calm Calm - N/A   Clear
1:15 PM 35.1 °F 32.2 °F 5.5 °F 29% 30.19 in 10.0 mi ENE 3.5 mph - N/A   Clear
1:35 PM 36.5 °F - 4.3 °F 26% 30.18 in 10.0 mi Calm Calm - N/A   Clear
1:55 PM 37.4 °F 33.8 °F 6.1 °F 27% 30.16 in 10.0 mi NE 4.6 mph - N/A   Clear
2:15 PM 37.9 °F - 7.0 °F 28% 30.16 in 10.0 mi Calm Calm - N/A   Clear
2:35 PM 37.6 °F - 6.1 °F 27% 30.15 in 10.0 mi Calm Calm - N/A   Clear
2:55 PM 38.7 °F 36.3 °F 5.7 °F 25% 30.14 in 10.0 mi NE 3.5 mph - N/A   Clear
3:15 PM 39.0 °F 36.8 °F 6.4 °F 26% 30.14 in 10.0 mi West 3.5 mph - N/A   Clear
3:35 PM 39.0 °F 35.7 °F 5.9 °F 25% 30.14 in 10.0 mi NNW 4.6 mph - N/A   Clear
3:55 PM 39.2 °F - 6.4 °F 26% 30.14 in 10.0 mi Calm Calm - N/A   Clear
4:15 PM 39.7 °F 37.6 °F 6.6 °F 25% 30.14 in 10.0 mi NNW 3.5 mph - N/A   Clear
4:35 PM 37.8 °F - 7.2 °F 28% 30.14 in 10.0 mi Calm Calm - N/A   Clear
4:55 PM 36.9 °F - 7.9 °F 30% 30.14 in 10.0 mi Calm Calm - N/A   Clear
5:15 PM 38.5 °F 36.1 °F 8.6 °F 29% 30.14 in 10.0 mi WNW 3.5 mph - N/A   Clear
5:35 PM 37.4 °F 32.8 °F 9.3 °F 31% 30.14 in 10.0 mi WNW 5.8 mph - N/A   Scattered Clouds
5:55 PM 37.4 °F 34.9 °F 10.4 °F 33% 30.15 in 10.0 mi WNW 3.5 mph - N/A   Clear
6:15 PM 38.1 °F 34.6 °F 11.8 °F 34% 30.15 in 10.0 mi WNW 4.6 mph - N/A   Clear
6:35 PM 36.7 °F - 12.0 °F 36% 30.15 in 10.0 mi Calm Calm - N/A   Clear
6:55 PM 35.2 °F - 12.6 °F 39% 30.14 in 10.0 mi Calm Calm - N/A   Clear
7:15 PM 34.2 °F 31.2 °F 12.4 °F 41% 30.13 in 10.0 mi SSE 3.5 mph - N/A   Clear
7:35 PM 32.9 °F 27.5 °F 14.0 °F 46% 30.13 in 10.0 mi ENE 5.8 mph - N/A   Clear
7:55 PM 31.8 °F 28.5 °F 14.7 °F 49% 30.13 in 10.0 mi East 3.5 mph - N/A   Clear
8:15 PM 31.8 °F 27.3 °F 14.5 °F 49% 30.12 in 10.0 mi East 4.6 mph - N/A   Clear
8:35 PM 30.2 °F 23.4 °F 14.7 °F 53% 30.13 in 10.0 mi East 6.9 mph - N/A   Clear
8:55 PM 31.1 °F 24.5 °F 14.7 °F 51% 30.14 in 10.0 mi East 6.9 mph - N/A   Clear
9:15 PM 31.1 °F 23.7 °F 14.0 °F 49% 30.13 in 10.0 mi East 8.1 mph - N/A   Clear
9:35 PM 30.2 °F 23.4 °F 14.7 °F 53% 30.13 in 10.0 mi ESE 6.9 mph - N/A   Clear
9:55 PM 29.7 °F 22.8 °F 15.8 °F 56% 30.13 in 10.0 mi ESE 6.9 mph - N/A   Clear
10:15 PM 26.4 °F - 15.1 °F 62% 30.15 in 10.0 mi Calm Calm - N/A   Clear
10:35 PM 25.3 °F 19.7 °F 15.4 °F 66% 30.14 in 10.0 mi NNE 4.6 mph - N/A   Clear
10:55 PM 27.0 °F - 14.9 °F 60% 30.14 in 10.0 mi Calm Calm - N/A   Clear
11:15 PM 25.9 °F - 15.6 °F 65% 30.14 in 10.0 mi Calm Calm - N/A   Clear
11:35 PM 24.8 °F - 15.4 °F 68% 30.15 in 10.0 mi Calm Calm - N/A   Clear
11:55 PM 26.4 °F - 15.8 °F 64% 30.15 in 10.0 mi Calm Calm - N/A   Clear